Weather History for KFMM - October, 2013

Change the Weather History Date:

Friday, October 4, 2013

  Actual Average (KAKO) Record (KAKO)
Temperature  
Mean Temperature 38 °F 55 °F  
Max Temperature 46 °F 68 °F 89 °F (1963)
Min Temperature 31 °F 41 °F 25 °F (1953)
Degree Days  
Heating Degree Days 26    
Month to date heating degree days  
Cooling Degree Days 0    
Month to date cooling degree days  
Moisture  
Dew Point 33 °F    
Average Humidity 80    
Maximum Humidity 98    
Minimum Humidity 61    
Precipitation  
Precipitation 0.00 in 0.05 in 0.70 in (1941)
Month to date precipitation 0.17  
Year to date precipitation 14.82  
Sea Level Pressure  
Sea Level Pressure 30.02 in    
Wind  
Wind Speed 18 mph (NNW)    
Max Wind Speed 36 mph    
Max Gust Speed 47 mph    
Visibility 8 miles    
Events Rain , Snow    
T = Trace of Precipitation, MM = Missing Value Source: NWS Daily Summary

Daily Weather History Graph

Daily Weather History Graph

Search for Another Location

Airport or City:

Trip Planner

Search our weather history database for the weather conditions in past years. The results will help you decide how hot, cold, wet, or windy it might be!

Date:

Astronomy

Oct. 04, 2013 Rise Set
Actual Time 6:54 AM MDT 6:32 PM MDT
Civil Twilight 6:27 AM MDT 6:59 PM MDT
Nautical Twilight 5:56 AM MDT 7:30 PM MDT
Astronomical Twilight 5:24 AM MDT 8:02 PM MDT
Moon 6:32 AM MDT (10/4) 6:15 PM MDT (10/4)
Length of Visible Light 12h 31m
Length of Day
11h 37m
Waning Crescent, 0% of the Moon is Illuminated
Oct 4
Waning Crescent
Oct 4
New
Oct 11
First Quarter
Oct 18
Full
Oct 26
Last Quarter

Hourly Weather History & Observations

Time (MDT) Temp. Windchill Dew Point Humidity Pressure Visibility Wind Dir Wind Speed Gust Speed Precip Events Conditions
12:15 AM 46.9 °F - 45.7 °F 95% 29.77 in 10.0 mi ENE 13.8 mph - N/A   Overcast
12:35 AM 46.9 °F - 45.5 °F 95% 29.77 in 10.0 mi NE 10.4 mph - N/A   Overcast
12:55 AM 46.9 °F - 45.5 °F 95% 29.77 in 10.0 mi NE 13.8 mph - N/A   Overcast
1:15 AM 46.9 °F - 45.5 °F 95% 29.78 in 10.0 mi NE 9.2 mph - N/A   Overcast
1:35 AM 46.9 °F - 45.5 °F 95% 29.79 in 10.0 mi North 5.8 mph - N/A   Overcast
1:55 AM 46.8 °F - 45.5 °F 95% 29.79 in 2.5 mi North 9.2 mph - N/A   Overcast
2:15 AM 46.4 °F 41.1 °F 45.1 °F 95% 29.79 in 2.0 mi North 11.5 mph - N/A Rain Light Rain
2:35 AM 46.0 °F 40.6 °F 44.8 °F 95% 29.79 in 2.5 mi North 11.5 mph - N/A   Light Drizzle
2:55 AM 45.9 °F 40.8 °F 44.6 °F 95% 29.79 in 2.5 mi North 10.4 mph - N/A   Drizzle
3:15 AM 45.1 °F 37.9 °F 43.9 °F 95% 29.79 in 2.5 mi North 17.3 mph - N/A Rain Rain
3:35 AM 44.6 °F 38.1 °F 43.3 °F 95% 29.78 in 4.0 mi North 13.8 mph 20.7 mph N/A Rain Light Rain
3:55 AM 44.2 °F 38.0 °F 42.8 °F 95% 29.79 in 4.0 mi North 12.7 mph - N/A   Overcast
4:15 AM 43.7 °F 36.6 °F 42.1 °F 94% 29.80 in 5.0 mi North 15.0 mph 20.7 mph N/A   Overcast
4:35 AM 43.7 °F 37.3 °F 41.9 °F 93% 29.80 in 4.0 mi North 12.7 mph 21.9 mph N/A   Overcast
4:55 AM 42.1 °F 34.2 °F 40.5 °F 94% 29.81 in 2.5 mi North 16.1 mph 21.9 mph N/A   Heavy Drizzle
5:15 AM 41.0 °F 32.2 °F 39.2 °F 93% 29.83 in 2.0 mi NNW 18.4 mph 28.8 mph N/A   Unknown
5:35 AM 38.5 °F 28.3 °F 36.9 °F 94% 29.85 in 2.0 mi NNW 20.7 mph 28.8 mph N/A   Unknown
5:55 AM 37.4 °F 25.6 °F 35.6 °F 93% 29.87 in 2.5 mi NW 26.5 mph 31.1 mph N/A Rain Light Rain
6:35 AM 35.8 °F 24.2 °F 34.0 °F 93% 29.91 in 2.5 mi NW 23.0 mph 35.7 mph N/A Rain Light Rain
6:55 AM 35.6 °F 23.4 °F 34.0 °F 94% 29.93 in 2.0 mi WNW 25.3 mph 34.5 mph N/A   Drizzle
7:15 AM 34.7 °F 22.0 °F 32.9 °F 93% 29.93 in 2.5 mi NW 26.5 mph 40.3 mph N/A Rain Light Rain
7:35 AM 33.4 °F 20.3 °F 32.0 °F 94% 29.92 in 1.8 mi NNW 26.5 mph 33.4 mph N/A Snow Light Snow
7:55 AM 33.3 °F 20.1 °F 32.0 °F 95% 29.92 in 1.8 mi NNW 26.5 mph 35.7 mph N/A Snow Light Snow
8:15 AM 32.5 °F 18.8 °F 32.0 °F 98% 29.93 in 0.2 mi North 27.6 mph 36.8 mph N/A Snow Snow
8:35 AM 32.9 °F 20.4 °F 32.0 °F 96% 29.94 in 5.0 mi North 23.0 mph 28.8 mph N/A Snow Light Snow
8:55 AM 33.1 °F 19.8 °F 32.0 °F 96% 29.94 in 2.0 mi North 26.5 mph 32.2 mph N/A Snow Light Snow
9:15 AM 33.3 °F 21.8 °F 32.0 °F 95% 29.96 in 1.8 mi NNW 19.6 mph 27.6 mph N/A Snow Light Snow
9:35 AM 34.7 °F 24.3 °F 32.7 °F 92% 29.98 in 7.0 mi NW 17.3 mph 21.9 mph N/A Rain Light Rain
9:55 AM 35.8 °F 25.4 °F 33.4 °F 91% 29.98 in 7.0 mi NW 18.4 mph 26.5 mph N/A Rain Light Rain
10:15 AM 36.7 °F 26.0 °F 34.3 °F 91% 30.00 in 7.0 mi NNW 20.7 mph 28.8 mph N/A   Light Drizzle
10:35 AM 36.7 °F 26.3 °F 33.4 °F 88% 30.01 in 10.0 mi NNW 19.6 mph 33.4 mph N/A   Overcast
10:55 AM 37.0 °F 26.7 °F 34.0 °F 89% 30.02 in 10.0 mi NW 19.6 mph 29.9 mph N/A Rain Light Rain
11:15 AM 39.6 °F 29.7 °F 35.2 °F 85% 30.02 in 10.0 mi NW 20.7 mph 35.7 mph N/A   Overcast
11:35 AM 41.0 °F 30.0 °F 34.3 °F 77% 30.03 in 10.0 mi NW 28.8 mph 35.7 mph N/A   Overcast
11:55 AM 41.7 °F 30.6 °F 33.4 °F 72% 30.03 in 10.0 mi NW 31.1 mph 35.7 mph N/A   Mostly Cloudy
12:15 PM 40.5 °F 30.2 °F 32.2 °F 72% 30.04 in 10.0 mi NW 24.2 mph 35.7 mph N/A   Mostly Cloudy
12:35 PM 43.7 °F 34.1 °F 33.3 °F 67% 30.05 in 10.0 mi NW 26.5 mph 33.4 mph N/A   Scattered Clouds
12:55 PM 43.9 °F 34.3 °F 32.2 °F 63% 30.05 in 10.0 mi NW 26.5 mph 33.4 mph N/A   Mostly Cloudy
1:15 PM 44.1 °F 34.2 °F 32.4 °F 63% 30.05 in 10.0 mi NW 28.8 mph 36.8 mph N/A   Mostly Cloudy
1:35 PM 45.3 °F 36.5 °F 32.9 °F 62% 30.05 in 10.0 mi NW 25.3 mph 32.2 mph N/A   Mostly Cloudy
1:55 PM 46.0 °F 37.2 °F 33.4 °F 61% 30.06 in 10.0 mi NW 26.5 mph 32.2 mph N/A   Mostly Cloudy
2:15 PM 44.6 °F 34.9 °F 32.0 °F 61% 30.07 in 10.0 mi NNW 28.8 mph 38.0 mph N/A   Scattered Clouds
2:35 PM 43.9 °F 34.1 °F 31.1 °F 61% 30.08 in 10.0 mi NW 27.6 mph 36.8 mph N/A   Scattered Clouds
2:55 PM 42.3 °F 32.2 °F 30.6 °F 63% 30.09 in 10.0 mi NW 26.5 mph 33.4 mph N/A   Mostly Cloudy
3:15 PM 41.7 °F 31.0 °F 30.2 °F 64% 30.10 in 10.0 mi NNW 28.8 mph 35.7 mph N/A   Overcast
3:35 PM 40.3 °F 30.2 °F 29.8 °F 66% 30.11 in 10.0 mi NW 23.0 mph 34.5 mph N/A   Overcast
3:55 PM 40.3 °F 29.3 °F 28.9 °F 64% 30.12 in 10.0 mi NW 27.6 mph 36.8 mph N/A   Overcast
4:15 PM 39.6 °F 27.7 °F 28.8 °F 65% 30.13 in 10.0 mi NW 31.1 mph 40.3 mph N/A   Overcast
4:35 PM 39.6 °F 27.3 °F 28.0 °F 63% 30.15 in 10.0 mi NNW 33.4 mph 43.7 mph N/A   Overcast
4:55 PM 39.9 °F 28.0 °F 27.7 °F 62% 30.16 in 10.0 mi NNW 32.2 mph 42.6 mph N/A   Overcast
5:15 PM 39.6 °F 28.1 °F 27.7 °F 62% 30.17 in 10.0 mi NW 28.8 mph 41.4 mph N/A   Mostly Cloudy
5:35 PM 38.3 °F 25.6 °F 26.1 °F 61% 30.18 in 10.0 mi NNW 33.4 mph 44.9 mph N/A   Scattered Clouds
5:55 PM 37.8 °F 25.2 °F 25.9 °F 62% 30.18 in 10.0 mi NW 31.1 mph 43.7 mph N/A   Scattered Clouds
6:15 PM 37.0 °F 23.5 °F 25.0 °F 62% 30.19 in 10.0 mi NW 35.7 mph 47.2 mph N/A   Scattered Clouds
6:35 PM 35.6 °F 24.2 °F 25.7 °F 67% 30.19 in 10.0 mi NW 21.9 mph 33.4 mph N/A   Clear
6:55 PM 35.2 °F 23.5 °F 25.3 °F 67% 30.19 in 10.0 mi NNW 23.0 mph 31.1 mph N/A   Clear
7:15 PM 34.7 °F 25.1 °F 26.8 °F 73% 30.19 in 10.0 mi NW 15.0 mph 21.9 mph N/A   Clear
7:35 PM 34.7 °F 24.0 °F 26.4 °F 72% 30.20 in 10.0 mi NW 18.4 mph 27.6 mph N/A   Clear
7:55 PM 33.3 °F 23.2 °F 27.3 °F 79% 30.20 in 10.0 mi NNW 15.0 mph - N/A   Clear
8:15 PM 32.9 °F 22.4 °F 27.3 °F 80% 30.19 in 10.0 mi NW 16.1 mph 20.7 mph N/A   Clear
8:35 PM 33.4 °F 21.7 °F 26.2 °F 75% 30.20 in 10.0 mi NW 20.7 mph 26.5 mph N/A   Clear
8:55 PM 33.4 °F 22.0 °F 26.2 °F 75% 30.20 in 10.0 mi NW 19.6 mph 26.5 mph N/A   Clear
9:15 PM 33.1 °F 22.2 °F 26.2 °F 76% 30.20 in 10.0 mi NW 17.3 mph 23.0 mph N/A   Clear
9:35 PM 32.9 °F 22.8 °F 26.1 °F 76% 30.20 in 10.0 mi NW 15.0 mph 19.6 mph N/A   Clear
9:55 PM 33.1 °F 22.2 °F 25.5 °F 74% 30.18 in 10.0 mi NNW 17.3 mph 23.0 mph N/A   Clear
10:15 PM 32.9 °F 22.8 °F 25.5 °F 74% 30.20 in 10.0 mi NW 15.0 mph 20.7 mph N/A   Clear
10:35 PM 32.5 °F 23.7 °F 25.3 °F 75% 30.20 in 10.0 mi NW 11.5 mph - N/A   Clear
10:55 PM 31.8 °F 23.3 °F 25.3 °F 77% 30.18 in 10.0 mi NW 10.4 mph - N/A   Clear
11:15 PM 32.4 °F 22.1 °F 24.8 °F 74% 30.17 in 10.0 mi NW 15.0 mph 21.9 mph N/A   Clear
11:35 PM 32.5 °F 21.5 °F 24.3 °F 72% 30.17 in 10.0 mi NW 17.3 mph - N/A   Clear
11:55 PM 33.8 °F 21.9 °F 22.8 °F 64% 30.18 in 10.0 mi NW 21.9 mph 28.8 mph N/A   Clear